Weather History for NFNA - April, 2013

Change the Weather History Date:

Monday, April 1, 2013

  Actual Average Record
Temperature  
Mean Temperature 80 °F -  
Max Temperature 87 °F - - ()
Min Temperature 73 °F - - ()
Cooling Degree Days 15    
Growing Degree Days 30 (Base 50)    
Moisture  
Dew Point 74 °F    
Average Humidity 83    
Maximum Humidity 100    
Minimum Humidity 61    
Precipitation  
Precipitation 0.00 in - - ()
Sea Level Pressure  
Sea Level Pressure 29.90 in    
Wind  
Wind Speed 2 mph ()    
Max Wind Speed 8 mph    
Max Gust Speed -    
Visibility 7.0 miles    
Events      
T = Trace of Precipitation, MM = Missing Value Source: Averaged Metar Reports

Daily Weather History Graph

Daily Weather History Graph

Search for Another Location

Airport or City:

Trip Planner

Search our weather history database for the weather conditions in past years. The results will help you decide how hot, cold, wet, or windy it might be!

Date:

Astronomy

Apr. 01, 2013 Rise Set
Actual Time 6:12 AM FJT 6:07 PM FJT
Civil Twilight 5:50 AM FJT 6:28 PM FJT
Nautical Twilight 5:25 AM FJT 6:54 PM FJT
Astronomical Twilight 4:59 AM FJT 7:19 PM FJT
Moon 10:09 PM FJT (4/1) 10:35 AM FJT (4/1)
Length of Visible Light 12h 38m
Length of Day
11h 55m
Waning Gibbous, 74% of the Moon is Illuminated
Apr 1
Waning Gibbous
Apr 3
Last Quarter
Apr 10
New
Apr 19
First Quarter
Apr 26
Full

Hourly Weather History & Observations

Time (FJT) Temp. Heat Index Dew Point Humidity Pressure Visibility Wind Dir Wind Speed Gust Speed Precip Events Conditions
12:00 AM 75 °F - 75 °F 100% 29.92 in 12 mi Calm Calm - -   Partly Cloudy
12:00 AM 75.2 °F - 75.2 °F 100% 29.92 in 6.2 mi Calm Calm - N/A   Mostly Cloudy
1:00 AM 75.2 °F - 75.2 °F 100% 29.89 in 6.2 mi Calm Calm - N/A   Mostly Cloudy
2:00 AM 73.4 °F - 73.4 °F 100% 29.89 in 6.2 mi Calm Calm - N/A   Scattered Clouds
3:00 AM 74 °F - 73 °F 96% 29.88 in 12 mi Calm Calm - -   Partly Cloudy
3:00 AM 73.4 °F - 73.4 °F 100% 29.86 in 6.2 mi Calm Calm - N/A   Scattered Clouds
4:00 AM 73.4 °F - 73.4 °F 100% 29.86 in 6.2 mi Calm Calm - N/A   Scattered Clouds
5:00 AM 73.4 °F - 73.4 °F 100% 29.86 in 6.2 mi Calm Calm - N/A   Scattered Clouds
6:00 AM 74 °F - 73 °F 96% 29.90 in 12 mi Calm Calm - -   Partly Cloudy
6:00 AM 75.2 °F - 73.4 °F 94% 29.89 in 6.2 mi Calm Calm - N/A   Mostly Cloudy
7:00 AM 75.2 °F - 73.4 °F 94% 29.92 in 6.2 mi Calm Calm - N/A   Mostly Cloudy
8:00 AM 78.8 °F - 75.2 °F 89% 29.92 in 6.2 mi Calm Calm - N/A   Mostly Cloudy
9:00 AM 84 °F - 73 °F 63% 29.93 in 31 mi SSE 6.9 mph - -   Partly Cloudy
9:00 AM 84.2 °F 90.9 °F 73.4 °F 70% 29.92 in 6.2 mi SSE 6.9 mph - N/A   Mostly Cloudy
10:00 AM 84.2 °F 92.3 °F 75.2 °F 74% 29.92 in 6.2 mi SSE 8.1 mph - N/A   Scattered Clouds
11:00 AM 84.2 °F 94.1 °F 77.0 °F 79% 29.92 in 6.2 mi South 6.9 mph - N/A   Mostly Cloudy
12:00 PM 84 °F - 74 °F 64% 29.92 in 31 mi South 8.1 mph - -   Partly Cloudy
12:00 PM 84.2 °F 90.9 °F 73.4 °F 70% 29.92 in 6.2 mi South 8.1 mph - N/A   Mostly Cloudy
1:00 PM 86.0 °F 95.1 °F 75.2 °F 70% 29.89 in 6.2 mi South 8.1 mph - N/A   Mostly Cloudy
2:00 PM 87.8 °F 97.6 °F 75.2 °F 66% 29.89 in 6.2 mi SSE 8.1 mph - N/A   Mostly Cloudy
3:00 PM 84 °F - 73 °F 61% 29.88 in 31 mi SSE 8.1 mph - -   Partly Cloudy
3:00 PM 84.2 °F 90.9 °F 73.4 °F 70% 29.86 in 6.2 mi SSE 8.1 mph - N/A   Scattered Clouds
4:00 PM 82.4 °F 88.2 °F 73.4 °F 74% 29.86 in 6.2 mi SSE 6.9 mph - N/A   Scattered Clouds
5:00 PM 82.4 °F 88.2 °F 73.4 °F 74% 29.86 in 6.2 mi SSE 6.9 mph - N/A   Scattered Clouds
6:00 PM 79 °F - 72 °F 73% 29.90 in 31 mi Calm Calm - -   Partly Cloudy
6:00 PM 78.8 °F - 71.6 °F 78% 29.89 in 6.2 mi Calm Calm - N/A   Scattered Clouds
7:00 PM 78.8 °F - 71.6 °F 78% 29.92 in 6.2 mi Calm Calm - N/A   Scattered Clouds
8:00 PM 77.0 °F - 73.4 °F 89% 29.92 in 6.2 mi Calm Calm - N/A   Scattered Clouds
9:00 PM 77 °F - 72 °F 79% 29.95 in 12 mi Calm Calm - -   Partly Cloudy
9:00 PM 77.0 °F - 71.6 °F 83% 29.95 in 6.2 mi Calm Calm - N/A   Scattered Clouds
10:00 PM 77.0 °F - 73.4 °F 89% 29.92 in 6.2 mi Calm Calm - N/A   Scattered Clouds
11:00 PM 75.2 °F - 73.4 °F 94% 29.95 in 6.2 mi Calm Calm - N/A   Partly Cloudy